This is the latest recevied weather packets stored in our database for station/object LU1MQF-13. If no packets are shown the sender has not sent any weather packets the latest 10 day(s).
| Time | Temp. | Humidity | Pressure | Rain* | Wind** | Luminosity | Snow |
|---|---|---|---|---|---|---|---|
| 1778254935 | 17.22° C | 35% | 935.5 hPa | - | - | - | - |
| 1778254036 | 16.11° C | 28% | 935.8 hPa | - | - | - | - |
| 1778253135 | 16.11° C | 30% | 936.1 hPa | - | - | - | - |
| 1778252236 | 15° C | 25% | 936.7 hPa | - | - | - | - |
| 1778251335 | 15° C | 23% | 937 hPa | - | - | - | - |
| 1778250435 | 13.89° C | 22% | 937.3 hPa | - | - | - | - |
| 1778249536 | 13.89° C | 22% | 937.6 hPa | - | - | - | - |
| 1778248635 | 13.89° C | 22% | 937.6 hPa | - | - | - | - |
| 1778247735 | 13.89° C | 22% | 938 hPa | - | - | - | - |
| 1778246835 | 13.89° C | 22% | 938.3 hPa | - | - | - | - |
| 1778245934 | 13.89° C | 22% | 938.4 hPa | - | - | - | - |
| 1778245035 | 12.78° C | 22% | 938.5 hPa | - | - | - | - |
| 1778244135 | 12.78° C | 22% | 938.2 hPa | - | - | - | - |
| 1778243235 | 12.78° C | 23% | 938.3 hPa | - | - | - | - |
| 1778242335 | 12.78° C | 22% | 938.4 hPa | - | - | - | - |
| 1778241435 | 12.78° C | 24% | 938.3 hPa | - | - | - | - |
| 1778240535 | 12.78° C | 25% | 938.5 hPa | - | - | - | - |
| 1778239635 | 12.78° C | 25% | 938.4 hPa | - | - | - | - |
| 1778238735 | 12.78° C | 25% | 938.2 hPa | - | - | - | - |
| 1778237835 | 12.78° C | 25% | 938.6 hPa | - | - | - | - |
| 1778236935 | 12.78° C | 25% | 938.7 hPa | - | - | - | - |
| 1778236035 | 12.78° C | 25% | 938.9 hPa | - | - | - | - |
| 1778235135 | 13.89° C | 25% | 938.6 hPa | - | - | - | - |
| 1778234235 | 13.89° C | 26% | 938.4 hPa | - | - | - | - |
| 1778233335 | 13.89° C | 26% | 938.2 hPa | - | - | - | - |
* Rain since midnight (hover to see other rain measurements)
** Current wind speed in m/s (hover to see current wind gust speed)